Powrót do katalogu

XMM

AktywnyNaukaHEO
NORAD 25989·PAYLOAD·🇪🇺 EU

Wystrzelony Dec 10, 1999 z Guiana Space Centre

Loading…

Następne Przeloty (najbliższe 24 godziny)

TLE

ŚwieżeSource: Space-Track

Epoka: Sep 16, 2026, 02:30 UTC

1 25989U 99066A   26259.10482038  .00000073  00000-0  00000-0 0  9993
2 25989  64.0056 281.8070 4648831  63.2758   0.1066  0.50126544 23462

Śledź XMM w czasie rzeczywistym z AllMySat

Download on the App Store